Time,TemperatureF,DewpointF,PressureIn,WindDirection,WindDirectionDegrees,WindSpeedMPH,WindSpeedGustMPH,Humidity,HourlyPrecipIn,Conditions,Clouds,dailyrainin,SoftwareType,DateUTC
2014-01-22 00:12:00,25.0,13.0,30.03,NNW,339,4.0,9.0,59,0.00,,,0.00,,2014-01-22 06:12:00,
2014-01-22 00:22:00,26.0,15.0,30.03,NNW,345,6.0,12.0,63,0.00,,,0.00,,2014-01-22 06:22:00,
2014-01-22 00:42:00,27.0,19.0,30.04,NNW,345,8.0,13.0,70,0.00,,,0.00,,2014-01-22 06:42:00,
2014-01-22 00:52:00,27.0,20.0,30.03,NNW,345,10.0,16.0,73,0.00,,,0.00,,2014-01-22 06:52:00,
2014-01-22 01:02:00,27.0,20.0,30.03,NNW,345,10.0,16.0,73,0.00,,,0.00,,2014-01-22 07:02:00,
2014-01-22 01:11:00,27.0,20.0,30.03,NNW,345,10.0,16.0,73,0.00,,,0.00,,2014-01-22 07:11:00,
2014-01-22 01:21:00,27.0,20.0,30.03,NNW,348,7.0,14.0,74,0.00,,,0.00,,2014-01-22 07:21:00,
2014-01-22 01:42:00,27.0,20.0,30.03,NNW,344,6.0,11.0,74,0.00,,,0.00,,2014-01-22 07:42:00,
2014-01-22 01:53:00,27.0,20.0,30.03,NNW,346,5.0,9.0,75,0.00,,,0.00,,2014-01-22 07:53:00,
2014-01-22 02:11:00,26.0,19.0,30.02,NNW,345,6.0,12.0,76,0.00,,,0.00,,2014-01-22 08:11:00,
2014-01-22 02:22:00,26.0,19.0,30.02,NNW,345,6.0,12.0,76,0.00,,,0.00,,2014-01-22 08:22:00,
2014-01-22 02:42:00,26.0,19.0,30.03,NNW,345,7.0,12.0,76,0.00,,,0.00,,2014-01-22 08:42:00,
2014-01-22 02:52:00,26.0,19.0,30.03,NNW,343,6.0,10.0,76,0.00,,,0.00,,2014-01-22 08:52:00,
2014-01-22 03:11:00,26.0,19.0,30.03,NW,322,4.0,8.0,76,0.00,,,0.00,,2014-01-22 09:11:00,
2014-01-22 03:22:00,26.0,19.0,30.04,NW,318,4.0,7.0,76,0.00,,,0.00,,2014-01-22 09:22:00,
2014-01-22 03:43:00,26.0,19.0,30.04,NW,319,5.0,12.0,76,0.00,,,0.00,,2014-01-22 09:43:00,
2014-01-22 03:53:00,26.0,19.0,30.04,NNW,329,5.0,12.0,75,0.00,,,0.00,,2014-01-22 09:53:00,
2014-01-22 04:12:00,26.0,19.0,30.04,NW,321,6.0,13.0,76,0.00,,,0.00,,2014-01-22 10:12:00,
2014-01-22 04:23:00,26.0,19.0,30.03,NW,325,7.0,15.0,75,0.00,,,0.00,,2014-01-22 10:23:00,
2014-01-22 04:42:00,26.0,19.0,30.04,NNW,331,7.0,13.0,75,0.00,,,0.00,,2014-01-22 10:42:00,
2014-01-22 04:53:00,26.0,18.0,30.05,NNW,343,9.0,16.0,71,0.00,,,0.00,,2014-01-22 10:53:00,
2014-01-22 05:11:00,25.0,17.0,30.06,NNW,346,12.0,18.0,70,0.00,,,0.00,,2014-01-22 11:11:00,
2014-01-22 05:22:00,25.0,17.0,30.06,NNW,346,12.0,18.0,70,0.00,,,0.00,,2014-01-22 11:22:00,
2014-01-22 05:42:00,23.0,15.0,30.06,NNW,345,10.0,18.0,71,0.00,,,0.00,,2014-01-22 11:42:00,
2014-01-22 05:53:00,23.0,15.0,30.06,NNW,344,10.0,16.0,72,0.00,,,0.00,,2014-01-22 11:53:00,
2014-01-22 06:12:00,21.0,14.0,30.08,NNW,347,10.0,20.0,74,0.00,,,0.00,,2014-01-22 12:12:00,
2014-01-22 06:22:00,21.0,14.0,30.08,NNW,346,10.0,20.0,74,0.00,,,0.00,,2014-01-22 12:22:00,
2014-01-22 06:42:00,20.0,13.0,30.09,NNW,347,10.0,15.0,74,0.00,,,0.00,,2014-01-22 12:42:00,
2014-01-22 06:52:00,20.0,13.0,30.09,NNW,347,10.0,15.0,74,0.00,,,0.00,,2014-01-22 12:52:00,
2014-01-22 07:11:00,18.0,11.0,30.10,NNW,346,8.0,12.0,75,0.00,,,0.00,,2014-01-22 13:11:00,
2014-01-22 07:22:00,18.0,12.0,30.11,NNW,348,6.0,11.0,76,0.00,,,0.00,,2014-01-22 13:22:00,
2014-01-22 07:42:00,17.0,11.0,30.12,North,351,5.0,9.0,76,0.00,,,0.00,,2014-01-22 13:42:00,
2014-01-22 07:52:00,16.0,10.0,30.12,North,352,4.0,9.0,78,0.00,,,0.00,,2014-01-22 13:52:00,
2014-01-22 08:12:00,17.0,11.0,30.12,NNW,346,6.0,10.0,78,0.00,,,0.00,,2014-01-22 14:12:00,
2014-01-22 08:22:00,17.0,11.0,30.12,NNW,344,5.0,9.0,78,0.00,,,0.00,,2014-01-22 14:22:00,
2014-01-22 08:42:00,16.0,10.0,30.11,North,352,1.0,4.0,78,0.00,,,0.00,,2014-01-22 14:42:00,
2014-01-22 08:52:00,16.0,11.0,30.10,NNW,344,2.0,5.0,79,0.00,,,0.00,,2014-01-22 14:52:00,
2014-01-22 09:12:00,16.0,11.0,30.11,NNW,339,1.0,5.0,79,0.00,,,0.00,,2014-01-22 15:12:00,
2014-01-22 09:22:00,17.0,12.0,30.10,NNW,332,2.0,4.0,79,0.00,,,0.00,,2014-01-22 15:22:00,
2014-01-22 09:43:00,17.0,11.0,30.09,NNW,330,2.0,4.0,78,0.00,,,0.00,,2014-01-22 15:43:00,
2014-01-22 09:53:00,17.0,11.0,30.09,NNW,330,2.0,4.0,78,0.00,,,0.00,,2014-01-22 15:53:00,
2014-01-22 10:13:00,20.0,14.0,30.12,WNW,290,4.0,13.0,76,0.00,,,0.00,,2014-01-22 16:13:00,
2014-01-22 10:23:00,20.0,14.0,30.12,WNW,301,5.0,13.0,76,0.00,,,0.00,,2014-01-22 16:23:00,
2014-01-22 10:42:00,22.0,15.0,30.14,NW,319,7.0,17.0,74,0.00,,,0.00,,2014-01-22 16:42:00,
2014-01-22 10:53:00,23.0,16.0,30.13,NW,317,5.0,9.0,73,0.00,,,0.00,,2014-01-22 16:53:00,
2014-01-22 11:02:00,23.0,16.0,30.13,NW,317,5.0,9.0,73,0.00,,,0.00,,2014-01-22 17:02:00,
2014-01-22 11:12:00,23.0,16.0,30.13,NW,317,5.0,9.0,73,0.00,,,0.00,,2014-01-22 17:12:00,
2014-01-22 11:22:00,24.0,15.0,30.14,NNW,333,6.0,13.0,67,0.00,,,0.00,,2014-01-22 17:22:00,
2014-01-22 11:52:00,24.0,14.0,30.14,NW,323,6.0,10.0,66,0.00,,,0.00,,2014-01-22 17:52:00,
2014-01-22 12:12:00,26.0,16.0,30.14,NNW,338,4.0,8.0,65,0.00,,,0.00,,2014-01-22 18:12:00,
2014-01-22 12:22:00,26.0,15.0,30.13,North,349,4.0,6.0,63,0.00,,,0.00,,2014-01-22 18:22:00,
2014-01-22 12:42:00,27.0,15.0,30.12,NW,312,4.0,10.0,59,0.00,,,0.00,,2014-01-22 18:42:00,
2014-01-22 12:52:00,27.0,15.0,30.12,NW,308,4.0,10.0,60,0.00,,,0.00,,2014-01-22 18:52:00,
2014-01-22 13:11:00,28.0,15.0,30.12,NNW,332,7.0,16.0,58,0.00,,,0.00,,2014-01-22 19:11:00,
2014-01-22 13:22:00,29.0,16.0,30.12,NNW,347,10.0,17.0,59,0.00,,,0.00,,2014-01-22 19:22:00,
2014-01-22 13:42:00,28.0,17.0,30.13,NNW,346,11.0,18.0,64,0.00,,,0.00,,2014-01-22 19:42:00,
2014-01-22 13:52:00,25.0,18.0,30.14,North,353,6.0,14.0,73,0.00,,,0.00,,2014-01-22 19:52:00,
2014-01-22 14:11:00,23.0,17.0,30.15,North,353,6.0,13.0,77,0.00,,,0.00,,2014-01-22 20:11:00,
2014-01-22 14:22:00,24.0,16.0,30.16,NNW,347,10.0,24.0,70,0.00,,,0.00,,2014-01-22 20:22:00,
2014-01-22 14:32:00,24.0,16.0,30.16,NNW,347,10.0,24.0,70,0.00,,,0.00,,2014-01-22 20:32:00,
2014-01-22 14:42:00,24.0,16.0,30.16,NNW,347,10.0,24.0,70,0.00,,,0.00,,2014-01-22 20:42:00,
2014-01-22 14:52:00,24.0,13.0,30.18,NNW,347,11.0,25.0,61,0.00,,,0.00,,2014-01-22 20:52:00,
2014-01-22 15:02:00,24.0,13.0,30.18,NNW,347,11.0,25.0,61,0.00,,,0.00,,2014-01-22 21:02:00,
2014-01-22 15:12:00,24.0,13.0,30.18,NNW,347,11.0,25.0,61,0.00,,,0.00,,2014-01-22 21:12:00,
2014-01-22 15:22:00,22.0,12.0,30.20,North,354,13.0,22.0,66,0.00,,,0.00,,2014-01-22 21:22:00,
2014-01-22 15:44:00,23.0,13.0,30.21,North,352,11.0,20.0,65,0.00,,,0.00,,2014-01-22 21:44:00,
2014-01-22 15:53:00,22.0,10.0,30.22,North,351,13.0,21.0,60,0.00,,,0.00,,2014-01-22 21:53:00,
2014-01-22 16:12:00,21.0,8.0,30.24,North,352,14.0,27.0,56,0.00,,,0.00,,2014-01-22 22:12:00,
2014-01-22 16:23:00,20.0,6.0,30.25,North,351,15.0,25.0,53,0.00,,,0.00,,2014-01-22 22:23:00,
2014-01-22 16:43:00,20.0,7.0,30.27,North,349,13.0,22.0,57,0.00,,,0.00,,2014-01-22 22:43:00,
2014-01-22 16:53:00,20.0,7.0,30.27,North,349,13.0,22.0,57,0.00,,,0.00,,2014-01-22 22:53:00,
2014-01-22 17:02:00,20.0,7.0,30.27,North,349,13.0,22.0,57,0.00,,,0.00,,2014-01-22 23:02:00,
2014-01-22 17:22:00,14.0,0.0,30.31,North,349,14.0,24.0,54,0.00,,,0.00,,2014-01-22 23:22:00,
2014-01-22 17:42:00,11.0,-6.0,30.33,NNW,347,14.0,24.0,46,0.00,,,0.00,,2014-01-22 23:42:00,
2014-01-22 17:52:00,10.0,-6.0,30.34,North,349,14.0,24.0,47,0.00,,,0.00,,2014-01-22 23:52:00,
2014-01-22 18:12:00,9.0,-5.0,30.35,NNW,346,14.0,22.0,51,0.00,,,0.00,,2014-01-23 00:12:00,
2014-01-22 18:22:00,9.0,-5.0,30.37,North,349,12.0,21.0,53,0.00,,,0.00,,2014-01-23 00:22:00,
2014-01-22 18:42:00,7.0,-6.0,30.38,NNW,347,15.0,30.0,54,0.00,,,0.00,,2014-01-23 00:42:00,
2014-01-22 21:11:00,2.0,-8.0,30.47,North,350,9.0,16.0,61,0.00,,,0.00,,2014-01-23 03:11:00,
2014-01-22 21:22:00,2.0,-8.0,30.48,NNW,348,11.0,19.0,62,0.00,,,0.00,,2014-01-23 03:22:00,
2014-01-22 21:43:00,2.0,-8.0,30.48,NNW,346,10.0,20.0,63,0.00,,,0.00,,2014-01-23 03:43:00,
2014-01-22 21:53:00,1.0,-8.0,30.50,North,349,10.0,16.0,64,0.00,,,0.00,,2014-01-23 03:53:00,
2014-01-22 22:13:00,1.0,-8.0,30.50,NNW,348,12.0,20.0,64,0.00,,,0.00,,2014-01-23 04:13:00,
2014-01-22 22:23:00,1.0,-8.0,30.50,NNW,347,12.0,20.0,64,0.00,,,0.00,,2014-01-23 04:23:00,
2014-01-22 22:42:00,0.0,-9.0,30.51,North,350,9.0,16.0,65,0.00,,,0.00,,2014-01-23 04:42:00,
2014-01-22 22:53:00,0.0,-9.0,30.52,North,349,9.0,17.0,65,0.00,,,0.00,,2014-01-23 04:53:00,
2014-01-22 23:12:00,0.0,-9.0,30.52,North,349,10.0,19.0,65,0.00,,,0.00,,2014-01-23 05:12:00,
2014-01-22 23:22:00,0.0,-9.0,30.53,NNW,347,10.0,17.0,66,0.00,,,0.00,,2014-01-23 05:22:00,
2014-01-22 23:42:00,-1.0,-10.0,30.55,North,350,9.0,15.0,66,0.00,,,0.00,,2014-01-23 05:42:00,
2014-01-22 23:52:00,-1.0,-9.0,30.55,North,349,9.0,15.0,67,0.00,,,0.00,,2014-01-23 05:52:00,